STARLINK-32289, 60737

Orbit data source: Space-Track

STARLINK-32289, 60737 is a payload satellite owned by SpaceX/Seattle (US) in LEO that was launched on Wed, 28 Aug 2024 UTC via an FALCON 9 launch vehicle from the Air Force Eastern Test Range (AFETR). Payloads include a variety of satellites, spacecraft, and rockets equipped with specific instruments for various scientific and technological missions. These include communications satellites like Starlink; space stations such as the ISS; scientific satellites like the Hubble; Earth observation satellites from companies like Planet Labs, Umbra, and HawkEye 360; GPS; miniature CubeSats for education and research; and military/defense satellites.

Loading next visibility...
STARLINK-32289 details
Identifier
60737, 2024-152T
Orbit
LEO
Last TLE update21 hours ago
Origin
Flag of USSpaceX/Seattle (US)
ManufacturerSpaceX/Seattle
MissionOperational spacecraft
Bus & MotorSTARLINK V2M, Unknown motor
Mass730 kg wet, ~700 kg dry
Launch date (UTC)
2024-08-28 (5 months ago)
Launch vehicle
FALCON 9
Launch site
Air Force Eastern Test Range (AFETR)
Object type
Payload
Rocket body
Debris
Shape & HBRUnknown
Radar Cross SectionLarge (>1 m²)

Expand to show TLE details & history

TLE from 21 hours ago
0 STARLINK-32289
1 60737U 24152T   25014.40996130 -.00000391  00000-0 -10682-5 0  9998
2 60737  53.1599  56.1945 0001191 109.4282 250.6848 15.30193205 22652
Epoch: 2025-01-14T09:50Z
Definitive object data (Epoch: 2025-01-14T09:50:20.656Z)
Latitude0.00002°
Longitude154.49139°
Altitude476.405 km
Speed7.629 km/s
True Right ascension03h 44m 46s
True Declination0° 00' 00"
Sunlit
Object was in full shadow at TLE epoch
Visualization TLE readout
Latitude43.65899°
Longitude-74.86851°
Altitude478.813 km
Speed7.632 km/s
Apparent Right ascension15h 53m 34s
Apparent Declination6° 01' 43"
Sunlit
Object is in full shadow
Visualization observer readout
Local Sidereal Time07:23:57
Azimuth59.346° ENE
Elevation-23.325°
Doppler factor1
Orbital elements
Apogee altitude476.308 km
Perigee altitude474.676 km
Semi-major axis6,853.629 km
Eccentricity0.0001191
Inclination53.1599°
RAAN56.1945°
Arg. of periapsis109.4282°
True anomaly250.67192°
Mean anomaly250.6848°
Eccentric anomaly250.67836°
Mean motion3.82527 °/min
BSTAR-0.0000010682
Orbital period94.11 mins
Loading maneuver chart data...
Loading historical data...
Loading historical data...
Loading historical data...
Loading historical data...
Loading historical data...
Loading historical data...
Loading historical data...

STARLINK-32289 Visibility forecast

Observer location: undefined°, undefined

Span
Click to sort rows by Start time (UTC) header in descending order
Start Az.
Max El. time (UTC)
Max El. Az.
Max El.
End time (UTC)
End Az.
5 mins2025-01-15 11:24:31.318Z335.362° NNW2025-01-15 11:26:31.318Z32.296° NE31.741°2025-01-15 11:29:31.318Z100.161° ESE
4 mins2025-01-15 13:02:31.318Z271.514° WNW2025-01-15 13:04:31.318Z223.365° SW23.264°2025-01-15 13:06:31.318Z181.208° SSW
4 mins2025-01-16 04:20:31.318Z181.494° SSW2025-01-16 04:22:31.318Z118.861° SE29.268°2025-01-16 04:24:31.318Z74.348° E
4 mins2025-01-16 05:58:31.318Z286.475° WNW2025-01-16 06:00:31.318Z344.292° N26.233°2025-01-16 06:02:31.318Z25.68° NE
|